Home   Weather   Yaoundé   Past weeks

Flag for Cameroon Past Weather in Yaoundé, Cameroon — Yesterday and Last 2 Weeks

Now
70 °F

Passing clouds.


Feels Like: 70 °F
Forecast: 67 / 81 °F
Wind: No wind

Location: Yaounde Airport

Current Time: Dec 4, 2016 at 7:11:08 am

Latest Report: Dec 4, 2016 at 6:00 am


Visibility: 3 mi

Pressure: 30.01 "Hg (27.61 "Hg at 717m altitude)

Humidity: 100%

Dew Point: 70 °F

Location of YaoundéLocation

Past Weather in Yaoundé — Graph

°F

Yaoundé Temperature Yesterday

Maximum temperature yesterday: 82 °F (at 2:00 pm)
Minimum temperature yesterday: 70 °F (at 5:00 am)
Average temperature yesterday: 74 °F

High & Low Weather Summary for the Past Weeks

 TemperatureHumidityPressure
High90 °F (Nov 24, 2:00 pm)100% (Nov 19, 6:00 am)30.12 "Hg (Nov 19, 6:00 am)
Low66 °F (Nov 23, 2:00 am)52% (Nov 24, 2:00 pm)29.83 "Hg (Nov 20, 3:00 pm)
Average75 °F87%29.98 "Hg
* Reported Nov 19 6:00 am — Dec 4 6:00 am, Yaoundé, Weather by CustomWeather, © 2016

Note: Actual official high and low records may vary slightly from our data, if they occured in-between our weather recording intervals... More about our weather records

Advertising

Yaoundé Weather History for the Previous 24 Hours

Scroll right to see more
 ConditionsComfort  
Time TempWeatherWind HumidityBarometerVisibility
6:00 am
Sun, Dec 4
70 °FPassing clouds.No wind100%30.01 "Hg3 mi
5:00 am72 °FPassing clouds.No wind94%29.98 "Hg5 mi
4:00 am72 °FPassing clouds.2 mph94%29.98 "Hg5 mi
3:00 am72 °FPassing clouds.No wind94%29.98 "Hg5 mi
2:00 am70 °FPassing clouds.No wind94%29.98 "Hg5 mi
1:00 am72 °FPassing clouds.1 mph94%29.98 "HgN/A
12:00 am70 °FPassing clouds.No wind100%30.01 "HgN/A
11:00 pm
Sat, Dec 3
70 °FPassing clouds.No wind100%30.01 "HgN/A
10:00 pm72 °FPassing clouds.No wind94%30.01 "HgN/A
9:00 pm72 °FPassing clouds.No wind94%30.01 "HgN/A
8:00 pm72 °FPassing clouds.1 mph94%29.95 "HgN/A
7:00 pm73 °FPassing clouds.No wind94%29.92 "HgN/A
6:00 pm77 °FPassing clouds.3 mph79%29.92 "HgN/A
5:00 pm81 °FPassing clouds.5 mph66%29.89 "HgN/A
4:00 pm82 °FScattered clouds.7 mph66%29.89 "HgN/A
3:00 pm82 °FScattered clouds.3 mph62%29.92 "HgN/A
2:00 pm82 °FPartly sunny.6 mph62%29.95 "HgN/A
1:00 pm79 °FPartly sunny.3 mph74%29.98 "HgN/A
12:00 pm77 °FPartly sunny.2 mph83%30.01 "HgN/A
11:00 am77 °FPartly sunny.3 mph83%30.04 "HgN/A
10:00 am77 °FPartly sunny.1 mph79%30.04 "HgN/A
9:00 am73 °FPartly sunny.3 mph89%30.04 "HgN/A
8:00 am72 °FPartly sunny.6 mph94%30.04 "Hg5 mi
7:00 am70 °FPartly sunny.1 mph100%30.01 "Hg4 mi
Weather by CustomWeather, © 2016

See weather overviewHow to use our weather pages